When you browse on this site, cookies collect data to enhance your experience and personalize the content and advertising you see.
Visit our Privacy Policy to learn more. By continuing to use the site, you agree to this use of cookies and data.
  • In Switzerland
  • List of Countries
  • For 7 days
  • Water Temperature
  • Weather Map
  • Weather Widgets
  • user-avatar
    Login

    Hourly Weather Seevetal

    Today, 26 May, Tuesday

    Time Temperature Precipitation Wind Pressure Humidity
    00:00 +8°C° 0 mm 2 mps 770 mmHg 95%
    01:00 +7°C° 0 mm 2 mps 770 mmHg 97%
    02:00 +8°C° 0 mm 1 mps 771 mmHg 97%
    03:00 +8°C° 0 mm 1 mps 771 mmHg 97%
    04:00 +7°C° 0 mm 1 mps 771 mmHg 97%
    05:00 +9°C° 0 mm 1 mps 771 mmHg 93%
    06:00 +10°C° 0 mm 1 mps 771 mmHg 89%
    07:00 +12°C° 0 mm 1 mps 771 mmHg 85%
    08:00 +14°C° 0 mm 1 mps 772 mmHg 78%
    09:00 +16°C° 0 mm 1 mps 772 mmHg 72%
    10:00 +19°C° 0 mm 1 mps 772 mmHg 65%
    11:00 +20°C° 0.1 mm 1 mps 772 mmHg 64%
    12:00 +20°C° 0.1 mm 1 mps 772 mmHg 62%
    13:00 +21°C° 0.1 mm 1 mps 771 mmHg 60%
    14:00 +20°C° 0.1 mm 2 mps 771 mmHg 61%
    15:00 +20°C° 0.1 mm 2 mps 771 mmHg 62%
    16:00 +20°C° 0.1 mm 2 mps 771 mmHg 64%
    17:00 +19°C° 0.1 mm 2 mps 771 mmHg 68%
    18:00 +18°C° 0.1 mm 2 mps 771 mmHg 73%
    19:00 +17°C° 0.1 mm 2 mps 771 mmHg 77%
    20:00 +15°C° 0 mm 2 mps 771 mmHg 81%
    21:00 +13°C° 0 mm 1 mps 771 mmHg 85%
    22:00 +11°C° 0 mm 1 mps 771 mmHg 89%
    23:00 +11°C° 0 mm 1 mps 771 mmHg 89%

    Tomorrow, 27 May, Wednesday

    Time Temperature Precipitation Wind Pressure Humidity
    00:00 +11°C° 0 mm 1 mps 771 mmHg 90%
    01:00 +10°C° 0 mm 1 mps 771 mmHg 90%
    02:00 +10°C° 0 mm 1 mps 770 mmHg 90%
    03:00 +9°C° 0 mm 1 mps 770 mmHg 91%
    04:00 +9°C° 0 mm 1 mps 770 mmHg 91%
    05:00 +10°C° 0 mm 1 mps 770 mmHg 85%
    06:00 +10°C° 0 mm 2 mps 770 mmHg 78%
    07:00 +13°C° 0 mm 2 mps 770 mmHg 72%
    08:00 +15°C° 0 mm 2 mps 770 mmHg 69%
    09:00 +16°C° 0 mm 3 mps 770 mmHg 65%
    10:00 +18°C° 0 mm 3 mps 770 mmHg 62%
    11:00 +18°C° 0.1 mm 3 mps 770 mmHg 64%
    12:00 +18°C° 0.1 mm 4 mps 769 mmHg 65%
    13:00 +19°C° 0.1 mm 4 mps 769 mmHg 67%
    14:00 +18°C° 0.2 mm 4 mps 769 mmHg 68%
    15:00 +17°C° 0.2 mm 5 mps 769 mmHg 68%
    16:00 +17°C° 0.2 mm 5 mps 769 mmHg 68%
    17:00 +16°C° 0.1 mm 5 mps 770 mmHg 68%
    18:00 +14°C° 0.1 mm 4 mps 770 mmHg 68%
    19:00 +13°C° 0.1 mm 4 mps 770 mmHg 68%
    20:00 +11°C° 0 mm 4 mps 770 mmHg 72%
    21:00 +9°C° 0 mm 3 mps 770 mmHg 76%
    22:00 +8°C° 0 mm 3 mps 770 mmHg 80%
    23:00 +7°C° 0 mm 3 mps 770 mmHg 83%

    Day after tomorrow, 28 May, Thursday

    Time Temperature Precipitation Wind Pressure Humidity
    00:00 +5°C° 0 mm 3 mps 770 mmHg 86%
    01:00 +6°C° 0 mm 2 mps 770 mmHg 89%
    02:00 +5°C° 0 mm 2 mps 770 mmHg 91%
    03:00 +5°C° 0 mm 2 mps 770 mmHg 93%
    04:00 +4°C° 0 mm 2 mps 770 mmHg 95%
    05:00 +5°C° 0 mm 3 mps 770 mmHg 88%
    06:00 +8°C° 0 mm 3 mps 770 mmHg 80%
    07:00 +10°C° 0 mm 4 mps 770 mmHg 73%
    08:00 +11°C° 0 mm 4 mps 770 mmHg 68%
    09:00 +13°C° 0 mm 4 mps 769 mmHg 63%
    10:00 +14°C° 0 mm 4 mps 769 mmHg 58%
    11:00 +15°C° 0 mm 4 mps 769 mmHg 56%
    12:00 +15°C° 0 mm 4 mps 769 mmHg 54%
    13:00 +17°C° 0 mm 4 mps 769 mmHg 52%
    14:00 +17°C° 0 mm 4 mps 768 mmHg 53%
    15:00 +16°C° 0 mm 5 mps 768 mmHg 54%
    16:00 +15°C° 0 mm 5 mps 768 mmHg 54%
    17:00 +14°C° 0 mm 4 mps 768 mmHg 59%
    18:00 +13°C° 0 mm 4 mps 768 mmHg 63%
    19:00 +12°C° 0 mm 4 mps 767 mmHg 68%
    20:00 +10°C° 0 mm 3 mps 767 mmHg 75%
    21:00 +9°C° 0 mm 3 mps 767 mmHg 83%
    22:00 +7°C° 0 mm 2 mps 768 mmHg 90%
    23:00 +6°C° 0 mm 2 mps 767 mmHg 92%

    29 May, Friday

    Time Temperature Precipitation Wind Pressure Humidity
    00:00 +5°C° 0 mm 2 mps 767 mmHg 93%
    01:00 +5°C° 0 mm 2 mps 767 mmHg 95%
    02:00 +6°C° 0 mm 1 mps 767 mmHg 95%
    03:00 +5°C° 0 mm 1 mps 767 mmHg 95%
    04:00 +5°C° 0 mm 1 mps 767 mmHg 96%
    05:00 +7°C° 0 mm 1 mps 767 mmHg 89%
    06:00 +8°C° 0 mm 1 mps 767 mmHg 83%
    07:00 +10°C° 0 mm 1 mps 767 mmHg 77%
    08:00 +12°C° 0 mm 1 mps 767 mmHg 70%
    09:00 +15°C° 0 mm 1 mps 767 mmHg 64%
    10:00 +18°C° 0 mm 1 mps 766 mmHg 58%
    11:00 +18°C° 0 mm 1 mps 766 mmHg 54%
    12:00 +18°C° 0 mm 2 mps 766 mmHg 49%
    13:00 +19°C° 0 mm 2 mps 766 mmHg 45%
    14:00 +19°C° 0 mm 3 mps 765 mmHg 48%
    15:00 +19°C° 0 mm 3 mps 765 mmHg 50%
    16:00 +19°C° 0 mm 3 mps 765 mmHg 53%
    17:00 +18°C° 0 mm 3 mps 765 mmHg 58%
    18:00 +17°C° 0 mm 3 mps 765 mmHg 62%
    19:00 +16°C° 0 mm 3 mps 765 mmHg 67%
    20:00 +13°C° 0 mm 3 mps 765 mmHg 72%
    21:00 +12°C° 0 mm 2 mps 765 mmHg 78%
    22:00 +9°C° 0 mm 2 mps 765 mmHg 84%
    23:00 +9°C° 0 mm 2 mps 765 mmHg 85%

    30 May, Saturday

    Time Temperature Precipitation Wind Pressure Humidity
    00:00 +9°C° 0 mm 1 mps 765 mmHg 86%
    01:00 +8°C° 0 mm 1 mps 766 mmHg 87%
    02:00 +8°C° 0 mm 1 mps 766 mmHg 87%
    03:00 +8°C° 0 mm 1 mps 766 mmHg 87%
    04:00 +7°C° 0 mm 1 mps 766 mmHg 87%
    05:00 +9°C° 0 mm 1 mps 766 mmHg 80%
    06:00 +11°C° 0 mm 1 mps 766 mmHg 73%
    07:00 +13°C° 0 mm 1 mps 766 mmHg 66%
    08:00 +14°C° 0 mm 1 mps 766 mmHg 61%
    09:00 +16°C° 0 mm 2 mps 766 mmHg 56%
    10:00 +17°C° 0 mm 2 mps 766 mmHg 52%
    11:00 +18°C° 0.1 mm 2 mps 766 mmHg 51%
    12:00 +18°C° 0.1 mm 3 mps 766 mmHg 50%
    13:00 +18°C° 0.1 mm 3 mps 765 mmHg 50%
    14:00 +18°C° 0 mm 3 mps 765 mmHg 50%
    15:00 +18°C° 0 mm 3 mps 765 mmHg 51%
    16:00 +18°C° 0 mm 4 mps 765 mmHg 51%
    17:00 +18°C° 0 mm 3 mps 765 mmHg 56%
    18:00 +17°C° 0 mm 3 mps 765 mmHg 61%
    19:00 +16°C° 0 mm 3 mps 764 mmHg 65%
    20:00 +13°C° 0 mm 3 mps 765 mmHg 72%
    21:00 +12°C° 0 mm 2 mps 765 mmHg 78%
    22:00 +9°C° 0 mm 2 mps 765 mmHg 84%
    23:00 +8°C° 0 mm 2 mps 765 mmHg 84%

    31 May, Sunday

    Time Temperature Precipitation Wind Pressure Humidity
    00:00 +7°C° 0 mm 2 mps 765 mmHg 83%
    01:00 +7°C° 0 mm 2 mps 765 mmHg 83%
    02:00 +8°C° 0 mm 1 mps 765 mmHg 83%
    03:00 +7°C° 0 mm 1 mps 764 mmHg 82%
    04:00 +7°C° 0 mm 1 mps 764 mmHg 82%
    05:00 +9°C° 0 mm 1 mps 764 mmHg 78%
    06:00 +11°C° 0 mm 1 mps 764 mmHg 73%
    07:00 +13°C° 0 mm 1 mps 764 mmHg 69%
    08:00 +15°C° 0 mm 2 mps 764 mmHg 63%
    09:00 +17°C° 0 mm 2 mps 764 mmHg 56%
    10:00 +19°C° 0 mm 3 mps 764 mmHg 50%
    11:00 +19°C° 0 mm 3 mps 764 mmHg 48%
    12:00 +20°C° 0 mm 3 mps 764 mmHg 46%
    13:00 +20°C° 0 mm 4 mps 764 mmHg 45%
    14:00 +20°C° 0 mm 4 mps 763 mmHg 46%
    15:00 +20°C° 0 mm 4 mps 763 mmHg 48%
    16:00 +20°C° 0 mm 4 mps 763 mmHg 49%
    17:00 +19°C° 0 mm 4 mps 763 mmHg 54%
    18:00 +18°C° 0 mm 4 mps 763 mmHg 59%
    19:00 +16°C° 0 mm 3 mps 763 mmHg 64%
    20:00 +14°C° 0 mm 3 mps 763 mmHg 68%
    21:00 +12°C° 0 mm 3 mps 763 mmHg 73%
    22:00 +10°C° 0 mm 2 mps 763 mmHg 78%
    23:00 +10°C° 0 mm 2 mps 763 mmHg 77%
    Show more